Regional Weather Roundup
Issued by NWS

Home | Current Version | Previous Version | Graphics & Text | Print | Product List | Glossary On
Versions: 1 2 3 4 5 6 7 8 9 10 11 12 13 14 15 16 17 18 19 20 21 22 23 24 25 26 27 28 29 30 31 32 33 34 35 36 37 38 39 40 41 42 43 44 45 46 47 48 49 50
752
ASUS43 KLOT 250509
RWRIL

ILLINOIS REGIONAL WEATHER ROUNDUP
NATIONAL WEATHER SERVICE CHICAGO/ROMEOVILLE IL
1200 AM CDT SUN JUN 25 2017

NOTE: "FAIR" INDICATES FEW OR NO CLOUDS BELOW 12,000 FEET WITH NO
SIGNIFICANT WEATHER AND/OR OBSTRUCTIONS TO VISIBILITY.

* THESE STATIONS ARE NOT UNDER NWS QUALITY CONTROL. THEY ALSO MAY NOT
  REPORT WEATHER SUCH AS PRECIPITATION OR FOG.

ILZ001-002-007-009-015-016-024-250600-
NORTHWEST ILLINOIS

CITY           SKY/WX    TMP DP  RH WIND       PRES   REMARKS
MOLINE         MOCLDY    64  48  56 CALM      30.11R
STERLING*      MOCLDY    56  53  90 W6        30.11R
SAVANNA*       CLEAR     54  53  94 CALM      30.10S
$$

ILZ003-004-008-010-011-017-018-250600-
NORTH CENTRAL ILLINOIS

CITY           SKY/WX    TMP DP  RH WIND       PRES   REMARKS
ROCKFORD       CLEAR     55  52  89 W7        30.09S
FREEPORT*      PTCLDY    53  51  92 W5        30.11S
ROCHELLE*      PTCLDY    54  52  95 W5        30.09S
DE KALB*       MOCLDY    55  52  91 W5        30.09R
PERU*          PTCLDY    57  49  75 NW3       30.10R
$$

ILZ005-006-012>014-019>023-250600-
NORTHEAST ILLINOIS

CITY           SKY/WX    TMP DP  RH WIND       PRES   REMARKS
CHICAGO-OHARE  MOCLDY    59  51  75 W7        30.05F
CHICAGO-MIDWAY MOCLDY    63  49  60 W7        30.06R
AURORA         PTCLDY    57  52  83 W3        30.08R
LANSING*       MOCLDY    59  46  60 W3        30.07S
JOLIET*        CLOUDY    61  52  71 CALM      30.08R
WAUKEGAN       PTCLDY    54  50  86 SW3       30.03S
DUPAGE AIRPORT PTCLDY    56  53  90 SW6       30.06S
WHEELING       PTCLDY    60  50  69 SW6       30.06S
MORRIS*        MOCLDY    60  50  70 CALM      30.07S
ROMEOVILLE*    CLOUDY    59  49  69 W3        30.08R
NORTHERLY ISL    N/A     65  44  46 CALM        N/A
$$

LMZ740>746-250600-
SOUTHERN LAKE MICHIGAN

STATION/POSITION SKY/WX   TEMP    WIND        PRES    VSBY  WAVE
                          AIR SEA DIR/SP/G                  HT/PER
                          (F)     (DEG/KT/KT) (MB)    (MI)  (FT/S)
SOUTHERN BUOY              62 62  300/ 14/ 17 1015.9          3/ 4
WILMETTE HARBOR            62 65  260/  6/ 10   N/A           1/ 3
HARRISON CRIB              65     260/  6/  7   N/A
BURNHAM HARBOR             65                   N/A
CALUMET HARBOR             66     230/  3/  4 1017.4R
BURNS HARBOR               66     220/  4/  6 1018.3S
MICHIGAN CITY              65     280/  6/  7   N/A
MICHIGAN CITY 6N           65 67  310/  4/  8   N/A           2/ 4
ST. JOSEPH                 65 68  310/  8/ 12 1017.3          3/ 4
$$

ILZ025>027-034>036-040-047-049-050-058-095>099-250600-
WEST-CENTRAL ILLINOIS

CITY           SKY/WX    TMP DP  RH WIND       PRES   REMARKS
QUINCY         CLEAR     59  50  72 SW8       30.13S
GALESBURG*     CLEAR     60  48  64 NW6       30.13R
MACOMB*        CLEAR     58  49  71 SW6       30.13R
JACKSONVILLE*  CLEAR     61  46  57 SW5       30.14S
PITTSFIELD*    PTCLDY    64  50  61 S5        30.16S
$$

ILZ028>032-037-038-041>044-048-051>054-059>061-250600-
CENTRAL ILLINOIS

CITY           SKY/WX    TMP DP  RH WIND       PRES   REMARKS
PONTIAC        CLOUDY    64  49  59 SW7       30.10S
BLOOMINGTON    MOCLDY    58  46  64 S9        30.12S
DECATUR        CLEAR     58  48  69 SW7       30.14S
PEORIA         CLEAR     61  49  64 SW7       30.09S
LACON*         CLOUDY    62  49  64 N3        30.10R
LINCOLN*       CLEAR     60  48  63 CALM      30.12S
SPRINGFIELD    CLEAR     63  47  55 SW6       30.13F
TAYLORVILLE    PTCLDY    56  49  77 S6        30.15S
$$

ILZ033-039-045-046-055>057-062-063-250600-
EAST-CENTRAL ILLINOIS

CITY           SKY/WX    TMP DP  RH WIND       PRES   REMARKS
CHAMPAIGN      CLEAR     56  47  71 SW8       30.13S
RANTOUL*       CLEAR     57  49  74 SW5       30.12S
MATTOON        CLEAR     62  51  67 SW8       30.14S
PARIS*         CLEAR     54  52  92 CALM      30.15S
$$

ILZ079-100>102-250600-
SOUTHWEST ILLINOIS

CITY           SKY/WX    TMP DP  RH WIND       PRES   REMARKS
ALTON          CLEAR     58  53  83 CALM      30.18S
BELLEVILLE     PTCLDY    60  51  72 CALM      30.19S
CAHOKIA*       PTCLDY    58  48  69 CALM      30.18S
SPARTA*        CLEAR     60  50  69 CALM      30.21S
$$

ILZ064>066-069>071-074>076-080>082-084>086-088>090-092>094-250600-
SOUTH-CENTRAL ILLINOIS

CITY           SKY/WX    TMP DP  RH WIND       PRES   REMARKS
CARBONDALE     CLEAR     60  58  92 CALM      30.19S
CAIRO*         CLEAR     63  62  99 CALM      30.18S
EFFINGHAM*     CLEAR     57  54  88 CALM      30.18S
MARION         CLEAR     61  59  94 CALM      30.20R
MT. VERNON     CLEAR     55  54  96 CALM      30.19R
CENTRALIA*     CLEAR     58  54  87 CALM      30.18S
SALEM*         CLEAR     60  53  79 CALM      30.18S
METROPOLIS*    CLEAR     61  59  94 CALM      30.19R
$$

ILZ067-068-072-073-078-083-087-091-250600-
SOUTHEAST ILLINOIS

CITY           SKY/WX    TMP DP  RH WIND       PRES   REMARKS
LAWRENCEVILLE  PTCLDY    63  56  78 CALM      30.16S
FLORA*         CLEAR     58  53  82 CALM      30.18S
FAIRFIELD*     CLEAR     60  54  82 CALM      30.17S
HARRISBURG*    CLEAR     62  57  84 CALM      30.18R
ROBINSON*      PTCLDY    56  54  92 CALM      30.17S
CARMI*         CLEAR     61  57  88 NW6       30.17S
$$

ABBREVIATIONS USED IN REMARKS
   TC - TEMPERATURE IN CELSIUS
  WCI - WIND CHILL INDEX
   HX - HEAT INDEX
  VSB - VISIBILITY
$$





USA.gov is the U.S. government's official web portal to all federal, state and local government web resources and services.